Location: Cossonay
(46.5833°N, 6.4167°E)
Time: 21:03:50
(UTC+00:00)

Cosmos 2360 Rocket - Pass Details

Date: 07 June 2020
Orbit: 832 x 846 km, 71.0° (Epoch: 04 July)

Event Time Altitude Azimuth Distance (km) Brightness Sun altitude
Exits shadow 02:25:37 12° 204° (SSW) 2,282 3.8 -10.5°
Maximum altitude 02:30:49 88° 117° (ESE) 844 2.2 -9.9°
Drops below altitude 10° 02:36:29 10° 27° (NNE) 2,464 6.1 -9.2°
Sets 02:38:56 0° 28° (NNE) 3,405 7.1 -8.9°
